Temp
8 8 8 8 8 8 8 8 8 7 7 7 7 7 7 6 6 6 5 5 5 4 4 4 4 4 4 4 4 4 4 4 4 4 4 5 5 5 4 5 4 4 4
7 7 7 7 7 7 7 7 7 7 7 7 7 7 7 6 6 5 5 4 4 4 4 4 3 3 3 3 3 3 3 3 3 3 3 4 4 4 4 4 4 4 3
7 7 7 7 6 6 6 7 7 7 7 7 7 7 6 6 5 5 4 4 3 3 3 3 2 2 2 2 2 2 1 2 2 1 1 1 2 2 2 2 2 1 1
6 6 6 6 6 6 6 6 6 6 6 6 6 5 5 4 4 4 3 3 3 2 2 1 1 1 1 0 0 0 0 0 0 0 -0 -0 -1 -1 1 1 1 0 0
6 6 5 5 5 6 5 5 6 6 6 6 5 4 4 3 3 2 2 1 1 1 0 0 0 0 0 0 0 -0 -0 -0 -0 -1 -1 -1 -1 -1 -1 0 -0 -1 -1
5 5 5 5 5 5 5 5 5 5 4 4 3 3 2 2 2 1 1 1 0 -0 -0 -0 -0 -0 -0 -1 -1 -1 -1 -1 -2 -2 -2 -2 -2 -2 -3 -2 -1 -1 -1
5 5 5 5 4 4 4 4 4 4 3 3 3 2 2 2 1 1 0 -0 -1 -1 -1 -1 -1 -1 -1 -2 -2 -2 -3 -3 -3 -3 -3 -3 -3 -3 -4 -4 -3 -3 -2
5 5 5 4 4 4 4 4 3 3 2 2 2 2 1 1 0 -1 -1 -1 -1 -1 -0 -1 -2 -2 -2 -3 -3 -3 -3 -3 -3 -3 -3 -3 -4 -4 -4 -5 -5 -5 -3
5 5 4 4 4 4 3 3 2 2 2 1 1 1 -0 -1 -1 -2 -2 -2 -2 -2 -2 -3 -3 -3 -3 -3 -4 -4 -4 -4 -4 -4 -4 -5 -5 -5 -5 -6 -6 -8 -9
5 5 4 4 4 3 3 2 2 2 1 1 0 -0 -1 -2 -3 -3 -3 -2 -3 -3 -3 -4 -4 -4 -4 -4 -4 -4 -5 -5 -5 -5 -5 -6 -6 -6 -6 -7 -7 -8 -10
4 4 4 4 3 3 2 1 1 1 0 -0 -0 -1 -2 -3 -3 -2 -2 -3 -3 -3 -3 -4 -4 -5 -5 -5 -5 -5 -5 -5 -6 -6 -6 -7 -7 -8 -8 -8 -9 -9 -10
4 4 3 3 3 2 1 1 1 0 -0 -1 -1 -2 -3 -3 -3 -3 -3 -3 -3 -4 -4 -5 -5 -6 -6 -6 -6 -6 -6 -7 -7 -8 -9 -9 -10 -10 -11 -11 -11 -11 -11
3 3 3 3 3 2 1 1 0 -0 -1 -1 -3 -3 -3 -4 -4 -4 -4 -3 -4 -4 -5 -5 -6 -6 -7 -7 -7 -7 -7 -8 -9 -10 -10 -11 -11 -12 -12 -12 -12 -12 -12
3 3 3 3 2 1 1 0 -0 -1 -2 -3 -3 -3 -4 -4 -4 -4 -3 -4 -4 -5 -5 -6 -6 -7 -7 -7 -7 -8 -8 -9 -10 -11 -12 -12 -13 -13 -13 -13 -13 -13 -14
3 3 3 2 2 1 0 -0 -1 -2 -3 -3 -4 -4 -4 -4 -4 -4 -4 -4 -5 -5 -6 -6 -7 -7 -8 -8 -8 -9 -10 -10 -11 -12 -12 -12 -13 -13 -14 -14 -14 -16 -16
3 3 2 2 1 0 -0 -1 -2 -3 -3 -4 -4 -4 -4 -4 -4 -4 -4 -5 -5 -6 -6 -7 -7 -7 -7 -8 -10 -11 -11 -11 -12 -12 -12 -13 -13 -14 -15 -15 -15 -16 -17
2 2 2 1 1 -0 -2 -2 -3 -3 -4 -4 -4 -4 -4 -4 -4 -4 -5 -6 -6 -6 -6 -7 -7 -7 -8 -9 -10 -11 -12 -12 -13 -13 -13 -14 -14 -15 -15 -15 -17 -17 -16
2 2 2 2 0 -1 -2 -3 -3 -4 -4 -4 -3 -4 -4 -4 -5 -5 -6 -6 -6 -6 -6 -7 -7 -8 -9 -10 -11 -12 -12 -13 -13 -14 -14 -14 -15 -15 -16 -17 -17 -17 -16
2 2 2 1 -0 -1 -2 -3 -3 -3 -4 -4 -4 -4 -5 -5 -6 -6 -6 -7 -7 -6 -6 -7 -8 -9 -10 -11 -12 -13 -13 -13 -13 -14 -15 -15 -15 -16 -17 -17 -16 -16 -15
2 1 1 0 -1 -2 -2 -3 -3 -3 -4 -5 -5 -6 -6 -6 -7 -7 -7 -7 -7 -7 -7 -8 -9 -10 -11 -11 -12 -13 -13 -14 -14 -14 -15 -15 -16 -17 -18 -18 -18 -16 -15
0 0 -0 -1 -1 -2 -3 -3 -4 -4 -5 -6 -6 -6 -7 -7 -8 -8 -8 -8 -8 -8 -8 -8 -9 -10 -11 -12 -12 -13 -14 -15 -15 -15 -15 -16 -16 -18 -17 -17 -17 -16 -16
-0 -1 -1 -1 -2 -3 -3 -4 -4 -5 -6 -6 -6 -7 -8 -8 -8 -8 -8 -8 -9 -9 -9 -9 -9 -10 -11 -12 -13 -14 -15 -16 -16 -16 -16 -16 -18 -17 -17 -16 -16 -16 -16
-1 -1 -2 -2 -3 -3 -4 -4 -5 -5 -6 -7 -7 -8 -8 -9 -9 -9 -9 -9 -9 -9 -9 -10 -10 -10 -12 -13 -14 -15 -15 -15 -16 -17 -18 -17 -17 -16 -16 -16 -16 -16 -16
-2 -2 -2 -3 -4 -4 -5 -5 -5 -6 -7 -7 -8 -8 -9 -9 -9 -10 -10 -10 -10 -10 -10 -11 -11 -12 -13 -14 -15 -15 -16 -16 -18 -19 -17 -18 -17 -16 -16 -16 -16 -16 -16
-2 -2 -3 -4 -4 -5 -5 -6 -6 -7 -8 -8 -8 -9 -9 -9 -10 -10 -10 -10 -10 -11 -12 -12 -13 -14 -15 -15 -16 -16 -17 -18 -19 -18 -18 -17 -17 -16 -16 -16 -16 -16 -15
-2 -3 -4 -5 -5 -6 -6 -7 -7 -8 -8 -9 -9 -9 -9 -10 -10 -10 -10 -11 -11 -12 -13 -14 -15 -15 -16 -16 -16 -17 -17 -18 -18 -18 -18 -18 -18 -17 -16 -16 -15 -15 -15
Height
3123 3124 3124 3124 3124 3124 3123 3122 3122 3122 3121 3120 3119 3117 3116 3114 3112 3110 3108 3106 3103 3100 3097 3094 3090 3087 3083 3079 3074 3070 3066 3064 3057 3049 3046 3042 3041 3040 3037 3033 3030 3028 3025
3121 3121 3122 3122 3122 3122 3121 3120 3120 3119 3118 3117 3116 3114 3112 3110 3107 3105 3103 3100 3098 3094 3091 3087 3084 3080 3076 3072 3068 3062 3058 3055 3051 3041 3035 3026 3027 3026 3021 3019 3017 3014 3011
3117 3118 3119 3120 3121 3120 3119 3118 3117 3116 3115 3113 3112 3110 3107 3105 3103 3100 3098 3095 3092 3089 3085 3081 3077 3073 3068 3064 3060 3054 3049 3042 3042 3038 3028 3016 3010 3004 3007 3004 3002 3000 2998
3113 3116 3117 3118 3119 3118 3117 3115 3114 3112 3111 3109 3107 3104 3102 3100 3098 3096 3093 3090 3087 3083 3079 3075 3070 3065 3061 3055 3051 3046 3040 3033 3026 3024 3024 3018 3007 2994 2979 2987 2986 2984 2982
3111 3113 3114 3115 3116 3115 3114 3112 3110 3109 3106 3104 3102 3100 3098 3096 3094 3091 3088 3084 3080 3076 3072 3068 3063 3058 3052 3047 3041 3036 3031 3025 3018 3011 3004 3000 2997 2993 2984 2965 2967 2966 2964
3107 3110 3112 3112 3112 3111 3110 3108 3106 3104 3101 3099 3098 3096 3094 3092 3089 3086 3083 3080 3076 3071 3066 3060 3054 3048 3042 3036 3031 3025 3020 3014 3009 3003 2996 2989 2981 2974 2968 2961 2953 2948 2947
3104 3107 3109 3109 3109 3107 3106 3104 3103 3100 3098 3096 3094 3092 3089 3086 3083 3079 3075 3071 3067 3062 3056 3049 3043 3037 3031 3025 3020 3014 3009 3003 2997 2991 2985 2980 2973 2965 2957 2948 2939 2931 2929
3101 3104 3105 3106 3105 3104 3102 3101 3099 3097 3094 3092 3089 3087 3083 3079 3075 3071 3067 3062 3057 3052 3045 3039 3032 3027 3022 3016 3010 3005 2999 2993 2988 2982 2976 2968 2962 2954 2946 2938 2928 2917 2914
3098 3101 3102 3102 3102 3100 3099 3096 3094 3092 3090 3087 3083 3080 3075 3071 3068 3063 3059 3053 3048 3041 3035 3029 3024 3018 3013 3007 3001 2996 2990 2984 2977 2971 2963 2956 2950 2942 2934 2927 2919 2909 2898
3096 3097 3098 3099 3098 3097 3094 3092 3091 3088 3085 3081 3077 3073 3069 3064 3060 3056 3051 3045 3038 3032 3026 3020 3015 3010 3005 2998 2991 2986 2980 2972 2965 2957 2950 2943 2936 2928 2921 2913 2906 2899 2887
3094 3094 3095 3095 3094 3092 3090 3087 3086 3083 3079 3075 3071 3067 3062 3057 3052 3048 3041 3035 3029 3023 3018 3013 3008 3002 2996 2989 2982 2976 2968 2959 2951 2944 2935 2928 2919 2912 2905 2897 2890 2883 2875
3090 3090 3090 3090 3089 3087 3085 3082 3080 3077 3073 3069 3064 3060 3055 3050 3045 3039 3034 3027 3021 3015 3010 3005 2999 2992 2986 2979 2971 2963 2954 2945 2936 2928 2919 2912 2904 2897 2890 2881 2874 2866 2860
3086 3086 3085 3085 3084 3082 3079 3077 3074 3071 3067 3063 3058 3053 3048 3043 3037 3032 3025 3019 3014 3009 3003 2996 2990 2983 2976 2968 2960 2951 2941 2931 2922 2914 2906 2898 2890 2882 2875 2867 2859 2852 2845
3081 3081 3080 3080 3078 3076 3074 3071 3068 3064 3060 3056 3051 3046 3040 3035 3029 3023 3018 3012 3006 3000 2994 2988 2980 2973 2966 2957 2948 2937 2927 2919 2911 2903 2894 2886 2878 2869 2861 2854 2846 2838 2831
3076 3076 3075 3073 3072 3070 3068 3064 3061 3057 3053 3049 3044 3038 3032 3026 3021 3014 3009 3004 2997 2992 2985 2978 2972 2963 2955 2944 2933 2923 2915 2907 2899 2891 2882 2873 2865 2857 2849 2841 2833 2827 2820
3070 3070 3069 3068 3066 3064 3060 3057 3054 3050 3046 3041 3035 3029 3023 3017 3012 3007 3002 2996 2990 2984 2977 2970 2960 2952 2943 2932 2923 2913 2903 2895 2886 2876 2869 2860 2852 2844 2837 2831 2824 2819 2812
3064 3064 3063 3061 3058 3055 3052 3049 3046 3042 3037 3031 3025 3020 3015 3010 3005 2999 2993 2987 2981 2975 2967 2958 2950 2941 2931 2922 2912 2902 2892 2883 2874 2864 2855 2847 2840 2834 2826 2820 2813 2808 2804
3058 3057 3055 3052 3050 3047 3044 3041 3037 3033 3028 3023 3018 3012 3008 3002 2997 2990 2984 2978 2972 2964 2956 2948 2938 2930 2920 2909 2900 2890 2881 2872 2863 2853 2845 2838 2831 2824 2817 2810 2805 2799 2793
3052 3050 3047 3044 3042 3039 3036 3033 3029 3025 3021 3016 3010 3005 2999 2993 2987 2981 2975 2968 2961 2955 2947 2936 2927 2919 2910 2899 2888 2878 2870 2861 2852 2844 2837 2830 2822 2815 2809 2802 2794 2786 2780
3044 3042 3039 3037 3034 3031 3028 3025 3021 3017 3012 3007 3002 2996 2990 2983 2978 2971 2965 2959 2952 2944 2936 2927 2916 2906 2897 2889 2879 2868 2857 2850 2841 2835 2828 2822 2814 2807 2801 2793 2784 2774 2767
3036 3034 3031 3028 3025 3023 3020 3016 3012 3008 3003 2999 2993 2987 2980 2975 2969 2963 2958 2950 2942 2934 2926 2917 2906 2897 2887 2878 2869 2859 2849 2840 2832 2825 2819 2812 2806 2799 2791 2785 2775 2766 2757
3028 3025 3022 3020 3018 3015 3011 3008 3004 3000 2995 2990 2984 2979 2974 2968 2961 2955 2948 2940 2932 2923 2915 2906 2898 2887 2878 2867 2857 2849 2843 2835 2826 2818 2811 2804 2799 2790 2782 2774 2766 2758 2750
3019 3017 3015 3013 3010 3006 3002 2999 2995 2991 2986 2981 2977 2972 2966 2960 2953 2946 2938 2930 2921 2912 2904 2896 2885 2876 2866 2857 2850 2843 2835 2827 2818 2811 2803 2795 2788 2780 2772 2765 2758 2751 2744
3013 3011 3008 3005 3001 2998 2994 2990 2985 2982 2978 2974 2969 2964 2959 2952 2945 2937 2928 2920 2911 2903 2894 2884 2873 2864 2856 2849 2842 2834 2825 2818 2809 2802 2794 2786 2778 2771 2763 2757 2751 2745 2738
3006 3004 3000 2996 2993 2989 2984 2980 2978 2974 2970 2966 2961 2956 2950 2943 2935 2928 2919 2910 2902 2893 2883 2874 2864 2854 2847 2842 2835 2827 2819 2811 2803 2792 2784 2776 2768 2761 2755 2750 2744 2739 2733
2999 2995 2991 2987 2984 2980 2976 2974 2970 2966 2962 2958 2953 2946 2938 2931 2924 2917 2910 2903 2894 2885 2876 2867 2858 2850 2843 2836 2829 2820 2812 2804 2795 2785 2776 2768 2761 2754 2748 2743 2738 2734 2728
Wind_Speed
11 10 9 6 6 5 6 7 7 6 7 7 7 8 9 11 12 14 17 19 20 22 23 25 26 27 29 31 34 36 37 37 41 45 46 47 45 44 45 45 45 44 43
10 9 5 4 4 3 4 5 5 6 7 8 9 11 13 14 15 16 18 20 21 23 25 27 29 30 32 33 36 39 41 41 42 48 50 54 51 49 50 47 46 45 45
10 7 6 5 2 2 4 6 7 8 9 10 12 14 15 15 15 16 18 20 22 24 26 28 31 34 37 38 40 42 44 47 44 44 49 55 58 58 54 53 52 50 47
11 9 7 4 2 4 6 7 9 10 12 14 16 14 13 13 14 16 19 21 24 26 29 31 34 37 40 42 44 45 46 48 50 49 46 47 53 59 68 61 58 56 55
12 9 7 3 3 6 7 10 12 14 16 16 13 11 12 14 17 20 22 24 27 30 33 36 40 42 44 45 46 46 46 48 50 52 54 55 54 53 57 68 64 61 59
11 10 5 3 4 6 11 15 17 17 15 13 12 13 15 17 19 21 24 27 30 33 37 41 43 44 46 46 46 46 47 48 48 50 52 54 55 56 56 58 63 63 61
12 10 6 4 4 10 15 19 19 17 14 13 15 17 19 21 23 24 26 28 32 36 41 44 46 46 45 45 45 45 45 46 47 48 49 50 51 52 53 55 59 61 61
12 10 8 5 7 13 18 22 19 17 16 18 21 23 26 28 29 29 31 34 37 42 47 43 42 43 44 45 45 46 46 47 48 49 49 51 52 53 54 55 55 57 59
12 11 8 7 10 15 22 22 20 19 21 24 26 29 32 31 31 33 36 40 44 48 46 42 42 43 44 45 45 46 46 47 49 50 51 53 53 54 54 54 53 47 47
14 10 9 10 12 18 23 22 21 23 25 28 30 33 34 33 35 39 42 46 48 48 41 41 42 43 43 45 47 48 50 53 55 56 57 57 57 57 56 55 54 52 51
13 11 12 14 16 21 24 21 24 25 28 31 34 35 34 35 39 45 47 50 45 41 41 41 42 43 44 47 49 52 56 58 60 61 62 61 58 56 55 55 55 54 53
15 16 16 16 21 21 21 23 27 28 31 34 36 35 36 40 44 48 51 48 44 42 41 41 43 45 47 51 54 58 61 64 64 63 61 60 58 57 55 54 55 57 57
19 20 20 22 23 21 23 26 28 30 34 35 36 36 40 44 46 48 52 47 42 40 40 42 45 48 51 55 59 62 64 63 63 61 59 57 55 54 53 53 54 55 57
23 21 23 25 22 23 25 26 28 32 34 35 36 39 43 48 49 52 49 44 42 41 42 44 47 51 54 58 62 63 63 63 60 56 54 54 54 55 54 53 53 54 53
23 24 26 24 23 24 26 28 30 32 34 35 37 41 46 47 51 50 44 42 42 42 44 47 50 54 57 60 62 62 61 59 57 56 56 56 54 51 47 46 46 42 40
25 24 23 22 23 25 26 28 29 31 34 36 40 46 45 49 47 43 41 41 42 43 46 49 54 56 59 60 60 59 59 58 57 58 56 53 48 44 41 40 40 39 37
22 22 21 24 25 25 25 27 30 32 34 38 43 45 45 44 42 40 40 41 43 45 49 52 55 58 59 60 60 59 58 58 56 55 51 46 42 40 41 42 37 34 38
20 23 26 26 24 23 25 29 31 33 37 41 42 44 42 40 39 39 40 43 45 48 51 54 58 58 60 60 58 57 56 55 52 46 42 40 39 39 40 35 38 40 42
23 26 22 20 21 24 26 28 31 34 37 40 41 40 39 38 38 40 43 45 48 50 52 56 58 58 59 57 56 55 53 49 45 41 39 38 40 39 35 34 42 45 40
23 18 18 20 21 23 26 30 33 35 37 39 38 38 37 39 41 43 45 48 50 51 53 55 57 58 58 55 52 51 49 44 42 41 39 39 38 38 35 45 49 48 43
18 19 21 22 24 26 29 32 35 36 37 36 36 36 38 41 43 45 47 49 50 52 54 55 58 58 55 52 48 46 43 41 42 42 41 40 38 38 46 46 44 42 41
20 22 24 26 27 29 31 33 34 35 34 35 36 37 40 42 45 47 49 50 51 53 55 56 57 55 51 48 44 42 39 38 40 42 42 41 35 46 44 41 38 36 36
23 25 27 28 29 30 32 32 32 33 33 34 36 39 41 44 46 49 49 50 51 53 55 55 55 54 49 44 39 39 40 42 43 41 40 46 45 44 38 35 33 31 30
26 27 28 29 29 30 31 32 32 33 34 36 38 41 43 45 47 47 49 50 51 53 53 52 53 51 45 41 40 43 44 44 41 41 48 45 42 38 33 30 26 26 27
28 28 27 28 29 29 30 31 31 33 35 38 41 43 44 45 47 47 49 51 52 51 49 48 48 46 44 43 44 44 44 41 43 47 45 42 38 33 29 25 25 24 26
27 26 27 27 27 27 29 30 32 35 38 40 41 43 45 46 48 50 50 50 49 46 43 42 41 41 42 44 44 44 43 43 44 43 42 39 35 31 28 26 25 24 25
Wind_Direction
259 278 274 247 260 237 270 288 298 309 315 311 301 296 302 305 304 300 298 298 301 306 309 311 311 311 309 306 305 303 302 301 301 299 295 293 292 290 289 287 286 285 283
250 269 247 267 232 280 293 301 307 305 296 287 287 294 297 297 296 294 296 300 302 306 309 308 308 307 306 305 305 304 302 302 303 303 302 300 297 297 293 293 291 291 288
241 231 245 206 209 240 274 281 285 288 292 297 303 307 308 303 300 302 306 306 305 306 308 309 309 309 308 307 307 307 306 304 303 302 304 304 302 301 298 296 294 292 290
216 225 200 177 198 272 284 291 296 300 309 319 322 322 320 316 310 306 307 308 309 309 308 308 307 306 306 305 304 303 303 302 302 301 295 293 295 299 299 295 293 289 287
210 197 184 185 272 298 317 322 326 329 328 328 329 326 322 320 319 318 314 310 307 305 303 302 302 303 304 305 305 305 303 303 302 302 300 298 295 293 292 291 292 288 288
203 189 186 223 293 322 326 332 334 333 335 336 335 332 329 325 319 311 305 301 299 300 304 306 307 309 310 310 309 308 307 305 303 302 301 301 302 302 300 295 292 293 293
199 193 202 245 299 324 330 332 329 330 332 334 331 328 326 323 319 313 310 309 310 312 314 315 315 315 316 316 315 314 312 311 309 308 307 305 304 303 301 300 298 297 294
201 198 215 250 298 323 327 324 320 322 325 326 327 327 330 330 327 323 321 320 321 323 323 322 323 323 321 319 317 315 313 311 309 307 305 304 304 303 302 302 302 298 294
201 206 227 257 294 313 319 312 310 313 317 322 325 330 332 331 330 328 325 322 322 328 330 326 324 322 320 316 314 313 312 311 310 308 306 305 304 303 303 302 300 300 295
206 216 241 268 290 302 310 299 300 306 314 319 326 330 330 330 330 328 326 328 329 328 327 326 323 319 317 316 314 313 312 311 310 309 309 308 307 305 303 302 300 298 295
214 230 251 273 294 295 298 289 296 303 313 320 325 326 328 327 326 328 331 331 330 329 327 323 319 317 316 314 313 313 312 312 312 311 310 310 308 306 303 300 298 296 296
224 240 258 273 292 287 287 290 295 303 312 317 321 324 322 322 322 327 330 330 328 325 323 320 318 318 317 316 316 316 316 315 314 314 314 312 310 308 305 301 299 298 297
235 247 257 278 286 281 285 289 294 302 309 315 318 318 319 320 323 326 327 326 323 320 320 320 320 319 318 318 318 317 315 316 318 318 316 315 313 310 308 305 302 299 297
243 255 267 285 275 276 284 290 294 300 306 311 312 313 314 317 322 324 324 321 320 321 321 321 321 319 320 319 318 317 319 319 319 318 318 315 313 311 308 306 303 302 303
251 264 281 277 275 281 287 290 295 297 301 308 308 310 312 316 318 321 319 319 320 321 322 321 320 321 321 321 321 320 319 318 318 317 316 314 313 311 309 307 306 307 306
262 273 272 280 283 283 285 290 294 297 302 306 306 305 314 318 319 316 316 317 319 321 320 321 322 323 323 323 320 319 318 317 318 317 315 314 313 312 312 310 311 313 308
262 274 284 288 285 286 287 290 296 300 300 302 309 317 317 316 313 314 316 318 319 320 322 323 323 325 324 321 320 319 318 318 318 317 317 317 318 318 316 318 317 309 311
276 285 289 288 286 285 287 291 294 300 305 308 313 314 313 311 312 316 317 317 319 322 323 323 324 325 322 322 321 319 319 319 319 319 319 320 318 319 320 325 311 313 314
284 290 290 289 288 287 289 294 297 303 306 311 312 311 309 312 315 316 317 318 320 322 322 324 324 323 322 322 322 320 319 320 320 320 321 322 321 321 326 312 313 318 316
292 293 296 296 295 298 299 299 303 307 309 311 309 308 312 315 317 318 319 319 320 322 323 323 323 323 322 322 322 321 321 324 322 322 326 324 324 320 317 319 318 317 316
301 307 310 310 308 304 303 303 306 309 309 307 308 313 316 316 317 317 316 319 321 322 323 324 323 321 322 322 323 323 326 327 325 326 326 325 326 318 316 319 316 315 316
314 317 317 313 309 306 304 305 306 305 305 310 313 314 314 315 315 315 318 320 321 322 324 323 321 322 324 327 328 327 329 328 326 325 322 322 317 315 319 319 317 317 316
319 319 315 311 308 305 305 305 304 307 311 312 313 313 315 315 315 317 320 322 323 323 323 322 322 325 331 332 331 330 330 329 327 326 319 323 320 321 321 319 319 317 316
315 314 310 306 305 306 305 306 310 311 311 313 314 315 314 314 317 321 322 323 324 323 323 325 327 329 332 334 332 332 332 330 329 319 323 322 321 322 321 321 323 324 324
312 307 304 304 306 306 307 309 310 311 313 315 315 313 314 318 322 323 324 325 324 325 327 328 329 330 332 333 331 330 331 329 322 322 326 328 327 327 329 329 331 330 328
305 305 305 305 308 309 308 309 312 313 314 315 313 315 319 323 323 324 325 324 324 326 329 330 329 328 328 328 329 330 330 327 327 328 330 330 331 333 334 335 335 336 333